Probability
0 0 0 0 0 0 0 0 0 0 0 0 0 0 0 0 1 2 2 3 12 29 40 42 42 38 28 23 24 25 25 25 21 13 6 3 1 0 0 0 0 0 0 0 0 0 0 0 0
0 0 0 0 0 0 0 0 0 0 0 0 0 0 0 0 1 2 3 5 16 31 41 44 47 44 35 30 31 32 32 31 27 20 12 6 3 2 0 0 0 0 0 0 0 0 0 0 0
0 0 0 0 0 0 0 0 0 0 0 0 0 0 0 0 2 3 5 10 22 33 40 47 53 51 43 39 39 42 44 41 36 28 19 11 7 4 2 0 0 0 0 0 0 0 0 0 0
0 0 0 0 0 0 0 0 0 0 0 0 0 0 0 0 2 5 8 15 27 33 38 48 57 55 48 44 45 48 50 46 41 35 26 16 10 6 4 1 0 0 0 0 0 0 0 0 0
0 0 0 0 0 0 0 0 0 0 0 0 0 0 0 1 4 8 11 17 27 34 40 50 59 58 52 47 45 48 50 48 44 39 31 21 12 8 6 3 1 1 1 0 0 0 0 0 0
0 0 0 0 0 0 0 0 0 0 0 0 0 0 1 3 8 11 12 14 23 35 46 53 55 54 50 45 42 44 49 50 47 41 35 26 16 11 8 5 3 3 3 1 0 0 0 0 0
0 0 0 0 0 0 0 0 0 0 0 0 1 1 3 7 13 16 15 15 23 37 49 51 47 44 41 39 39 43 49 50 47 42 36 29 21 15 10 7 5 5 4 3 1 1 0 0 0
0 0 0 0 0 0 0 0 0 0 1 2 3 3 7 15 22 25 25 26 31 40 46 46 42 38 32 29 34 41 45 46 44 39 33 27 19 12 8 6 7 7 4 3 3 2 1 0 0
0 0 0 0 0 0 0 0 1 1 2 4 5 6 13 23 32 36 39 41 42 43 44 44 43 38 29 25 30 33 33 34 33 28 23 17 10 6 5 8 11 8 4 3 3 2 1 0 0
0 0 0 0 0 0 1 1 1 1 3 4 5 9 17 27 36 41 46 49 49 47 46 45 46 44 35 32 34 30 24 23 20 16 14 12 9 7 7 12 14 8 4 3 3 2 1 0 0
0 0 0 0 0 1 2 2 2 2 2 4 6 11 18 26 33 40 47 52 53 51 50 50 52 50 45 42 43 38 33 30 24 20 20 20 20 15 12 14 13 8 5 3 3 2 1 0 0
0 0 0 0 1 2 2 2 2 3 5 6 8 12 18 25 31 38 45 53 56 55 56 56 57 57 52 49 49 48 47 44 41 39 36 34 31 23 17 19 15 9 7 6 4 3 1 0 0
0 0 0 0 1 2 1 1 2 6 8 9 9 12 17 24 30 36 43 49 54 56 58 57 57 58 57 56 55 52 51 50 53 53 48 43 39 31 27 27 24 15 10 9 6 4 4 2 1
0 0 0 0 1 1 0 1 4 7 8 10 11 13 16 21 29 38 43 46 49 51 53 54 52 52 55 59 59 56 54 55 58 59 54 47 44 41 37 35 30 22 17 16 12 7 7 8 7
0 0 0 0 0 0 0 1 4 6 9 12 14 16 17 21 30 42 48 48 46 44 46 48 47 47 51 56 59 60 59 59 61 61 58 50 45 46 46 41 36 31 29 29 23 15 14 15 14
0 0 0 0 0 0 0 1 3 7 12 16 19 21 23 25 33 44 50 50 47 44 44 43 43 47 53 56 58 58 58 59 62 62 59 52 48 49 51 48 44 42 42 41 33 26 24 21 19
0 0 0 0 0 0 0 1 3 8 12 17 22 26 28 29 34 42 47 49 49 48 47 44 43 48 54 56 55 54 54 56 58 58 55 52 50 50 51 49 47 46 45 43 38 34 31 26 21
0 0 0 0 0 0 0 0 2 6 9 13 19 25 27 27 30 36 41 45 46 47 49 47 44 46 50 51 50 49 48 49 49 49 47 45 45 46 46 45 44 44 43 41 38 36 32 27 21
0 0 0 0 0 0 0 0 2 4 7 10 14 19 21 21 24 29 35 39 40 41 44 45 43 43 44 46 47 45 42 39 37 36 36 36 37 38 40 40 40 41 42 39 34 31 27 22 18
0 0 0 0 0 0 0 1 3 4 7 9 13 18 18 17 18 21 26 32 35 36 39 42 43 41 40 42 44 42 36 30 26 25 26 29 30 30 32 34 34 36 37 35 31 26 21 17 16
0 0 0 0 0 0 0 1 2 3 5 8 14 19 17 13 13 14 18 24 30 34 38 41 41 40 39 39 39 37 31 25 22 21 20 20 21 22 23 25 27 29 30 30 28 24 20 17 14
0 0 0 0 0 0 0 0 0 1 2 5 11 15 13 11 11 11 13 17 23 30 35 36 36 36 36 36 36 33 27 23 21 19 16 13 13 14 16 19 21 22 24 24 22 20 18 15 12
0 0 0 0 0 0 0 0 0 1 1 3 6 9 9 10 11 11 13 14 17 21 25 28 30 32 33 32 32 29 23 19 17 14 11 9 7 8 11 14 16 16 17 16 15 14 14 12 11
0 0 0 0 0 0 0 0 1 2 2 3 5 5 7 8 9 10 12 12 12 13 17 20 23 27 28 27 25 22 18 14 12 9 7 5 4 5 7 9 10 10 10 9 8 9 9 9 9
0 0 0 0 0 0 0 0 2 3 2 3 4 4 5 6 6 8 10 9 8 10 12 15 17 18 19 19 18 16 14 12 10 6 4 3 3 3 4 5 5 5 5 4 4 5 6 6 6
0 0 0 0 0 0 0 1 2 2 2 2 3 3 3 4 5 8 10 8 7 8 10 11 11 12 12 12 12 11 10 9 7 4 2 1 1 3 3 3 3 3 3 3 3 3 3 3 3
0 0 0 0 0 0 0 1 2 1 1 1 1 1 2 3 3 5 7 6 6 6 7 7 8 7 7 7 6 6 5 3 3 2 1 0 1 2 3 3 3 3 2 2 1 1 1 1 1
0 0 0 0 0 0 0 0 1 1 1 0 0 0 1 1 1 2 2 2 2 3 4 5 4 4 3 2 3 3 2 0 0 1 2 1 1 2 2 2 2 1 1 1 0 0 0 0 0
0 0 0 0 0 0 0 0 1 1 0 0 0 0 0 0 0 0 0 0 0 0 1 2 2 2 1 0 1 2 2 1 0 1 2 2 2 1 1 1 1 0 0 0 0 0 0 0 0
0 0 0 0 0 0 0 0 1 1 0 0 0 0 0 0 0 0 0 0 0 0 0 0 1 1 0 0 0 1 2 1 1 2 3 3 1 0 0 0 0 0 0 0 0 0 0 0 0
Wind_Speed
8 6 7 6 9 9 10 4 2 1 1 2 2 3 4 4 5 5 6 11 14 18 19 19 16 15 15 15 16 17 17 17 17 16 16 15 14 13 12 11 11 10 10 10 11 11 11 11 11
5 5 7 7 10 11 9 5 5 1 2 1 1 3 4 2 2 4 6 12 17 18 18 18 18 16 16 16 16 17 18 18 17 17 16 15 14 13 12 11 11 10 10 10 10 10 11 11 11
5 7 8 7 12 12 7 4 3 1 1 3 3 3 3 2 2 3 7 15 17 18 17 19 18 17 17 16 16 17 17 18 17 17 16 15 14 12 12 11 11 10 10 10 10 10 10 10 10
6 7 7 10 15 12 9 3 2 4 3 5 5 3 2 1 1 5 13 17 18 18 18 20 18 18 17 17 16 16 17 17 17 16 15 14 13 12 12 11 11 10 10 10 10 10 9 9 9
7 7 11 13 15 10 7 7 6 7 6 5 6 6 3 3 3 9 15 17 18 18 17 20 17 18 17 17 16 16 16 15 15 15 14 13 12 12 11 11 11 10 10 10 10 10 9 8 7
7 7 10 13 12 9 8 7 9 10 9 6 6 8 2 5 7 10 14 17 18 18 18 19 17 18 17 17 16 15 15 14 14 13 13 13 12 11 11 11 11 10 10 10 10 9 8 7 6
8 8 11 10 8 8 6 6 9 9 9 7 5 6 4 6 7 10 13 14 16 17 18 18 18 17 17 15 14 14 14 13 13 13 13 12 12 12 12 11 11 10 10 9 9 8 7 6 5
6 6 9 8 8 6 3 4 5 8 7 3 4 6 3 8 9 11 12 13 15 16 17 18 18 17 16 16 15 14 14 14 14 14 14 13 13 12 11 11 10 10 10 9 9 8 6 5 4
7 8 7 5 5 3 2 4 3 3 6 5 4 4 3 9 12 12 12 12 14 15 15 16 17 16 15 15 15 15 14 13 14 13 14 13 12 12 11 10 11 10 9 9 8 7 6 6 6
7 8 3 1 3 3 3 5 4 5 7 7 5 3 5 10 13 14 14 15 16 16 16 15 16 15 15 12 12 11 11 12 12 11 13 10 7 6 7 11 10 9 9 9 8 7 8 9 7
6 4 0 3 4 6 6 5 4 7 7 4 4 3 7 10 11 12 13 13 14 15 15 15 15 14 13 10 9 7 7 8 10 11 11 7 7 6 6 7 8 9 10 9 9 10 7 6 3
5 4 4 4 3 6 7 6 5 5 6 6 6 4 5 9 10 10 11 11 12 13 13 13 13 12 11 9 8 7 6 6 7 8 10 8 5 6 6 5 6 6 5 5 6 5 5 4 4
7 4 4 6 7 8 8 7 6 5 5 6 4 3 5 7 8 8 8 9 10 11 11 12 11 10 9 8 7 8 7 7 7 6 8 7 6 6 6 4 4 5 4 5 4 4 4 4 4
2 4 6 7 6 6 7 6 5 3 5 4 2 1 3 5 5 6 7 7 8 9 10 10 11 10 10 8 7 6 6 5 6 5 7 7 5 4 5 5 4 4 4 4 4 4 4 3 2
4 7 6 4 4 3 5 6 3 3 4 2 1 1 1 2 4 4 4 5 7 7 7 8 10 10 9 9 8 6 6 6 5 5 5 6 5 4 4 4 4 4 4 4 4 4 3 3 3
7 8 5 4 2 3 8 5 3 3 2 2 1 1 3 4 4 3 2 2 4 5 6 7 6 8 8 7 7 5 4 4 3 3 4 5 5 5 4 3 3 3 3 3 3 4 4 3 2
7 4 2 2 1 2 6 3 3 3 2 2 2 2 4 5 6 5 4 2 2 3 4 6 6 7 6 6 5 4 3 3 3 3 3 3 4 5 4 4 3 4 3 3 3 3 3 3 2
2 3 3 3 1 3 4 2 0 2 2 2 3 4 4 5 6 5 5 3 3 3 3 3 4 5 5 5 4 4 3 3 2 2 3 3 3 4 4 3 4 4 4 3 2 2 2 2 2
4 6 5 3 1 3 3 2 1 1 1 3 4 4 5 6 7 7 6 5 4 4 3 2 3 3 3 3 4 4 4 3 3 2 2 3 3 3 3 3 3 3 3 3 3 3 4 3 3
7 7 6 2 1 4 4 3 2 2 3 4 4 5 6 7 7 7 7 6 5 4 3 2 1 3 3 3 3 3 3 2 2 1 2 2 1 2 3 3 3 3 3 3 3 3 3 2 2
7 8 6 4 3 6 6 7 6 5 5 6 6 6 8 8 7 7 7 7 6 5 3 2 2 2 3 3 4 4 4 3 2 2 2 2 2 2 2 2 2 2 3 3 3 3 3 3 2
7 4 6 7 9 7 9 7 7 8 6 5 5 6 7 7 7 7 7 7 7 5 4 3 3 3 3 3 4 6 4 4 3 3 3 4 4 4 4 3 3 2 2 3 2 2 1 3 3
7 5 8 10 11 9 9 9 5 8 6 5 5 6 6 7 8 8 8 8 7 7 6 5 5 4 4 4 5 5 5 4 4 5 5 5 5 5 5 5 5 4 4 5 5 4 2 1 1
4 6 8 9 9 10 8 9 5 5 5 6 6 6 6 7 8 9 9 8 8 7 7 6 6 7 6 5 6 6 7 7 7 7 6 4 4 5 7 7 7 6 6 6 6 6 6 5 4
7 8 6 7 8 6 3 6 2 4 3 6 7 7 6 6 7 8 8 9 9 9 8 8 8 8 7 7 7 7 8 8 8 7 6 5 5 5 6 7 7 7 7 7 7 8 7 7 6
6 8 8 8 6 3 4 4 5 6 6 7 8 8 7 7 7 8 8 8 8 9 9 8 8 8 8 8 8 8 8 6 6 7 7 6 5 6 8 8 9 9 8 8 7 8 8 8 8
6 7 7 10 9 7 3 4 6 6 7 8 9 8 7 7 8 8 8 8 8 9 9 8 9 9 10 9 10 10 9 9 9 9 8 7 6 7 9 9 9 9 9 8 8 8 8 8 8
7 6 5 7 7 7 4 4 4 7 7 8 7 7 7 7 7 7 7 8 8 8 9 10 10 11 10 10 9 9 10 10 9 9 10 9 9 9 9 10 10 9 9 8 8 9 9 8 8
5 6 7 7 7 7 4 2 5 4 7 8 8 7 7 7 7 7 7 8 8 8 9 9 10 11 11 11 11 11 10 10 10 9 9 9 9 9 9 9 9 9 8 8 8 9 8 8 8
5 5 6 7 6 6 6 3 5 4 7 9 10 8 7 7 7 7 8 8 8 9 9 9 9 10 11 11 11 11 10 10 10 10 9 9 9 9 9 8 8 8 8 7 7 8 8 8 8
Wind_Direction
255 230 225 234 240 237 244 217 222 210 135 39 337 301 308 317 327 34 96 155 153 149 146 149 145 144 143 143 143 144 145 145 145 144 144 143 142 140 138 135 132 128 125 122 120 118 117 118 119
262 211 221 233 247 240 228 216 218 245 20 347 220 255 269 279 14 80 129 149 153 149 151 154 145 144 143 142 142 143 146 146 145 145 145 145 144 142 140 137 135 132 129 127 125 123 121 122 123
223 228 235 231 238 248 244 185 215 205 216 239 237 245 278 333 117 126 133 150 152 150 154 148 149 146 144 143 143 145 146 147 146 146 147 147 146 143 142 141 139 136 133 132 130 128 125 126 127
213 209 228 240 240 241 261 241 231 250 222 229 253 238 198 68 77 119 138 152 153 153 156 149 154 149 147 146 146 147 147 148 148 148 148 148 147 145 145 145 142 140 138 136 133 131 130 132 133
230 228 223 233 241 242 246 261 260 255 252 239 246 254 205 123 122 133 148 156 157 156 156 152 155 151 152 151 150 149 149 149 149 149 149 149 148 148 148 147 145 143 142 141 138 136 135 135 136
213 227 233 235 235 236 240 246 252 253 254 248 242 251 224 116 145 149 155 161 160 157 154 149 155 155 155 155 154 152 151 150 149 150 150 150 150 150 150 149 147 145 144 142 139 138 138 138 139
234 232 246 251 248 235 236 247 248 254 255 252 247 246 165 142 146 153 157 163 159 157 155 155 161 161 161 158 158 156 153 153 152 152 152 152 154 154 155 152 150 149 147 145 144 142 141 137 136
253 244 238 238 242 235 207 243 251 265 267 280 254 250 193 137 148 154 156 162 161 161 161 160 164 164 167 167 165 162 159 158 157 158 158 157 157 159 159 161 154 154 152 152 150 149 147 147 147
237 241 232 226 236 218 184 250 255 260 260 247 243 286 40 131 152 157 157 163 164 167 166 166 166 167 173 171 164 167 166 163 164 166 163 169 176 169 171 161 151 159 159 159 158 159 162 175 175
227 240 238 316 276 284 278 279 289 251 238 233 221 204 146 155 165 168 169 171 171 173 172 171 169 170 175 170 164 176 177 172 185 173 173 186 174 173 167 134 158 165 167 169 170 172 186 216 195
226 257 246 230 261 284 282 281 271 264 254 267 276 231 172 171 178 178 176 176 175 174 176 176 173 175 174 170 171 179 183 175 188 180 180 183 173 175 174 163 169 178 184 188 172 191 205 208 213
230 238 260 270 275 268 278 280 273 266 287 318 306 274 199 187 186 186 179 175 174 175 178 178 174 176 179 174 177 180 183 181 188 182 188 180 182 187 184 187 180 182 191 191 195 200 193 210 207
227 235 243 261 263 267 269 262 272 282 315 315 304 251 209 198 193 186 182 175 173 173 177 177 177 173 177 179 187 187 186 187 190 185 192 189 188 192 183 188 189 198 190 188 204 208 191 202 206
244 269 266 262 260 241 244 244 244 285 327 320 315 257 199 189 187 176 176 177 179 178 181 178 181 176 177 178 188 190 191 188 190 190 192 196 200 189 189 189 191 204 202 199 203 195 194 204 202
257 252 226 211 233 210 232 221 228 332 324 329 347 109 148 154 156 164 172 181 182 179 181 181 185 180 183 185 187 188 194 188 192 191 187 193 198 190 197 194 193 198 201 191 204 193 195 195 183
224 233 221 133 229 203 245 227 86 12 340 358 38 103 109 91 83 83 122 166 172 177 178 180 185 181 186 189 186 185 188 187 187 184 183 197 192 191 197 196 194 190 206 199 194 196 189 185 180
209 239 267 157 155 233 248 264 53 16 21 51 68 89 93 86 65 53 52 75 125 159 174 174 182 177 181 182 175 176 164 181 180 164 180 187 190 189 191 197 190 191 195 198 205 186 192 177 162
288 282 267 284 90 251 251 254 25 27 47 83 89 88 83 74 57 45 40 49 80 110 139 158 174 170 172 177 164 159 159 168 164 166 170 173 182 190 195 197 197 198 186 180 179 168 161 161 150
286 284 285 299 322 268 246 223 196 74 89 93 80 76 74 72 56 43 43 47 67 72 88 130 165 158 161 169 170 168 169 162 156 154 152 157 171 182 201 205 193 195 175 174 173 166 153 155 168
256 261 268 253 174 257 236 226 181 109 86 85 82 74 67 63 55 44 42 46 55 63 64 72 127 155 169 169 167 157 140 125 119 101 94 101 137 176 188 196 190 174 152 155 159 160 172 165 210
253 265 283 280 249 232 228 225 195 149 126 102 86 77 67 56 48 44 44 43 47 49 41 46 58 96 137 148 144 130 125 122 112 98 78 59 91 109 115 150 164 158 146 146 156 163 184 177 177
269 280 277 256 248 238 228 249 192 172 159 131 100 75 64 57 51 48 49 44 37 35 38 51 62 70 88 124 138 144 150 145 136 117 92 72 70 77 85 87 82 80 95 114 127 115 170 180 176
298 306 269 257 258 262 233 250 190 176 185 150 115 87 70 60 55 50 47 45 40 36 39 45 62 69 76 99 116 128 125 120 105 96 86 70 59 64 75 84 83 80 84 87 85 82 72 97 131
273 258 249 244 243 245 234 248 209 177 195 152 123 99 78 67 62 56 49 47 43 39 39 45 54 58 63 80 94 104 112 112 104 96 90 77 67 62 65 73 75 74 74 77 78 78 76 67 66
233 259 252 232 227 237 190 244 74 95 127 144 136 112 85 70 66 56 48 46 44 41 41 47 55 56 58 68 76 88 99 106 106 103 96 90 82 74 67 70 72 70 68 71 76 78 74 74 76
257 270 278 287 283 265 187 224 89 80 96 113 118 111 95 74 65 59 49 46 44 45 45 49 58 62 64 72 77 77 83 89 91 93 93 86 81 77 75 73 73 72 73 78 81 83 81 78 76
261 254 294 286 277 270 211 141 123 122 119 122 120 113 95 77 67 62 56 51 48 50 51 55 63 69 68 71 78 78 77 81 88 89 87 84 83 84 79 78 77 75 74 75 79 80 78 77 77
282 297 265 263 273 268 228 202 168 158 150 142 137 122 105 92 78 69 61 59 55 57 60 60 64 71 71 72 75 81 82 84 86 87 87 87 85 82 84 81 80 79 79 80 82 85 79 80 75
228 235 262 273 282 290 282 89 49 151 155 154 139 123 112 100 89 81 74 68 65 66 67 66 67 72 73 74 76 78 80 84 86 85 83 84 85 85 84 83 83 82 80 79 80 85 87 82 79
278 282 276 278 281 280 290 87 62 114 137 143 133 126 116 106 98 91 84 77 72 70 71 70 70 75 77 80 80 78 79 81 82 83 83 83 81 80 81 82 83 83 82 80 82 84 83 83 80